User: anonymous   Login
Location: Pacheco
(37.9835°N, 122.0752°W)
Time: 19:56:44
(UTC+00:00)
Language:

Chandra Rocket (1) - Orbit

View from above orbital plane
View from above orbital plane
View from above satellite
View from above satellite

Ground track
Ground track

The orbit data is extracted from the following two-line orbital elements,

1 25868U 99040C   24165.24777459  .00007543  00000-0  79259-3 0  9998
2 25868  28.4486  97.4403 4425135 197.9113 139.5508  6.63158281564135
Epoch (UTC): 13 June 2024 05:56:47
Eccentricity: 0.4425135
inclination: 28.4486°
perigee height: 293 km
apogee height: 10884 km
right ascension of ascending node: 97.4403°
argument of perigee: 197.9113°
revolutions per day: 6.63158281
mean anomaly at epoch: 139.5508°
orbit number at epoch: 56413

The dashed part of the orbit path shows where the satellite is in the earth's shadow,  

DLR